When you browse on this site, cookies collect data to enhance your experience and personalize the content and advertising you see.
Visit our Privacy Policy to learn more. By continuing to use the site, you agree to this use of cookies and data.
  • In Romania
  • List of Countries
  • For 7 days
  • Water Temperature
  • Satellite Maps
  • Weather Map
  • Weather Widgets
  • user-avatar
    Login

    Hourly Weather Arroyo

    Today, 25 April, Thursday

    Time Temperature Precipitation Wind Pressure Humidity
    00:00 +11°C° 0.1 mm 3 mps 688 mmHg 82%
    01:00 +11°C° 0.1 mm 4 mps 688 mmHg 82%
    02:00 +11°C° 0.1 mm 4 mps 688 mmHg 82%
    03:00 +11°C° 0.1 mm 4 mps 688 mmHg 82%
    04:00 +11°C° 0.3 mm 4 mps 688 mmHg 83%
    05:00 +11°C° 0.3 mm 4 mps 688 mmHg 84%
    06:00 +11°C° 0.3 mm 4 mps 688 mmHg 84%
    07:00 +10°C° 1 mm 4 mps 689 mmHg 87%
    08:00 +9°C° 1 mm 5 mps 689 mmHg 90%
    09:00 +9°C° 1 mm 5 mps 690 mmHg 93%
    10:00 +8°C° 0.4 mm 5 mps 690 mmHg 92%
    11:00 +8°C° 0.4 mm 4 mps 690 mmHg 90%
    12:00 +8°C° 0.4 mm 4 mps 690 mmHg 89%
    13:00 +8°C° 0.1 mm 5 mps 691 mmHg 86%
    14:00 +9°C° 0.1 mm 6 mps 691 mmHg 83%
    15:00 +9°C° 0.1 mm 7 mps 691 mmHg 80%
    16:00 +9°C° 0.2 mm 6 mps 691 mmHg 80%
    17:00 +9°C° 0.2 mm 6 mps 692 mmHg 80%
    18:00 +9°C° 0.2 mm 6 mps 692 mmHg 80%
    19:00 +8°C° 0.1 mm 5 mps 693 mmHg 83%
    20:00 +7°C° 0.1 mm 4 mps 694 mmHg 86%
    21:00 +7°C° 0.1 mm 2 mps 694 mmHg 90%
    22:00 +6°C° 0 mm 2 mps 695 mmHg 90%
    23:00 +7°C° 0 mm 1 mps 695 mmHg 90%

    Tomorrow, 26 April, Friday

    Time Temperature Precipitation Wind Pressure Humidity
    00:00 +6°C° 0 mm 1 mps 695 mmHg 91%
    01:00 +6°C° 0 mm 1 mps 695 mmHg 90%
    02:00 +5°C° 0 mm 1 mps 695 mmHg 90%
    03:00 +5°C° 0 mm 1 mps 695 mmHg 90%
    04:00 +5°C° 0 mm 1 mps 696 mmHg 89%
    05:00 +5°C° 0 mm 1 mps 696 mmHg 88%
    06:00 +5°C° 0 mm 1 mps 696 mmHg 87%
    07:00 +8°C° 0 mm 1 mps 697 mmHg 75%
    08:00 +10°C° 0 mm 1 mps 698 mmHg 64%
    09:00 +12°C° 0 mm 1 mps 698 mmHg 53%
    10:00 +13°C° 0 mm 1 mps 698 mmHg 48%
    11:00 +15°C° 0 mm 2 mps 699 mmHg 43%
    12:00 +16°C° 0 mm 2 mps 699 mmHg 38%
    13:00 +17°C° 0 mm 3 mps 698 mmHg 37%
    14:00 +17°C° 0 mm 3 mps 698 mmHg 36%
    15:00 +18°C° 0 mm 3 mps 698 mmHg 35%
    16:00 +17°C° 0 mm 3 mps 698 mmHg 39%
    17:00 +16°C° 0 mm 2 mps 698 mmHg 44%
    18:00 +16°C° 0 mm 2 mps 698 mmHg 48%
    19:00 +14°C° 0 mm 2 mps 698 mmHg 53%
    20:00 +12°C° 0 mm 2 mps 698 mmHg 57%
    21:00 +9°C° 0 mm 2 mps 699 mmHg 62%
    22:00 +9°C° 0 mm 2 mps 698 mmHg 62%
    23:00 +8°C° 0 mm 2 mps 698 mmHg 63%

    Day after tomorrow, 27 April, Saturday

    Time Temperature Precipitation Wind Pressure Humidity
    00:00 +8°C° 0 mm 2 mps 698 mmHg 63%
    01:00 +8°C° 0 mm 2 mps 698 mmHg 63%
    02:00 +8°C° 0 mm 2 mps 698 mmHg 63%
    03:00 +7°C° 0 mm 2 mps 698 mmHg 63%
    04:00 +8°C° 0 mm 2 mps 698 mmHg 64%
    05:00 +8°C° 0 mm 2 mps 698 mmHg 64%
    06:00 +8°C° 0 mm 2 mps 698 mmHg 64%
    07:00 +10°C° 0 mm 2 mps 699 mmHg 56%
    08:00 +14°C° 0 mm 2 mps 699 mmHg 48%
    09:00 +17°C° 0 mm 2 mps 700 mmHg 40%
    10:00 +19°C° 0 mm 2 mps 700 mmHg 36%
    11:00 +21°C° 0 mm 1 mps 700 mmHg 32%
    12:00 +23°C° 0 mm 1 mps 700 mmHg 29%
    13:00 +24°C° 0 mm 1 mps 700 mmHg 28%
    14:00 +24°C° 0 mm 1 mps 700 mmHg 27%
    15:00 +24°C° 0 mm 1 mps 699 mmHg 27%
    16:00 +24°C° 0 mm 1 mps 699 mmHg 31%
    17:00 +23°C° 0 mm 1 mps 699 mmHg 35%
    18:00 +22°C° 0 mm 1 mps 698 mmHg 39%
    19:00 +19°C° 0 mm 2 mps 698 mmHg 43%
    20:00 +17°C° 0 mm 2 mps 698 mmHg 48%
    21:00 +15°C° 0 mm 2 mps 698 mmHg 52%
    22:00 +14°C° 0 mm 2 mps 698 mmHg 55%
    23:00 +14°C° 0 mm 2 mps 698 mmHg 59%

    28 April, Sunday

    Time Temperature Precipitation Wind Pressure Humidity
    00:00 +13°C° 0 mm 2 mps 698 mmHg 62%
    01:00 +13°C° 0 mm 2 mps 697 mmHg 64%
    02:00 +12°C° 0 mm 2 mps 697 mmHg 66%
    03:00 +12°C° 0 mm 2 mps 696 mmHg 68%
    04:00 +12°C° 0 mm 1 mps 696 mmHg 67%
    05:00 +12°C° 0 mm 1 mps 696 mmHg 66%
    06:00 +12°C° 0 mm 1 mps 696 mmHg 65%
    07:00 +15°C° 0 mm 1 mps 696 mmHg 55%
    08:00 +18°C° 0 mm 1 mps 697 mmHg 45%
    09:00 +19°C° 0 mm 0 mps 697 mmHg 35%
    10:00 +23°C° 0 mm 1 mps 697 mmHg 32%
    11:00 +24°C° 0 mm 1 mps 697 mmHg 29%
    12:00 +26°C° 0 mm 1 mps 697 mmHg 26%
    13:00 +26°C° 0 mm 1 mps 696 mmHg 26%
    14:00 +26°C° 0 mm 1 mps 696 mmHg 25%
    15:00 +27°C° 0 mm 1 mps 695 mmHg 25%
    16:00 +26°C° 0 mm 1 mps 695 mmHg 29%
    17:00 +25°C° 0 mm 1 mps 695 mmHg 32%
    18:00 +24°C° 0 mm 1 mps 695 mmHg 36%
    19:00 +22°C° 0 mm 1 mps 695 mmHg 41%
    20:00 +19°C° 0 mm 2 mps 695 mmHg 46%
    21:00 +16°C° 0 mm 2 mps 695 mmHg 50%
    22:00 +16°C° 0 mm 2 mps 694 mmHg 53%
    23:00 +15°C° 0 mm 2 mps 694 mmHg 55%

    29 April, Monday

    Time Temperature Precipitation Wind Pressure Humidity
    00:00 +14°C° 0 mm 1 mps 694 mmHg 58%
    01:00 +14°C° 0 mm 1 mps 694 mmHg 60%
    02:00 +14°C° 0 mm 1 mps 693 mmHg 61%
    03:00 +13°C° 0 mm 1 mps 693 mmHg 63%
    04:00 +13°C° 0 mm 1 mps 693 mmHg 64%
    05:00 +13°C° 0 mm 1 mps 693 mmHg 65%
    06:00 +13°C° 0 mm 1 mps 693 mmHg 66%
    07:00 +15°C° 0 mm 1 mps 693 mmHg 57%
    08:00 +19°C° 0 mm 1 mps 694 mmHg 47%
    09:00 +22°C° 0 mm 1 mps 694 mmHg 37%
    10:00 +23°C° 0 mm 1 mps 694 mmHg 34%
    11:00 +24°C° 0 mm 1 mps 694 mmHg 31%
    12:00 +26°C° 0 mm 1 mps 694 mmHg 28%
    13:00 +26°C° 0 mm 1 mps 694 mmHg 27%
    14:00 +26°C° 0 mm 2 mps 693 mmHg 26%
    15:00 +26°C° 0 mm 2 mps 693 mmHg 25%
    16:00 +26°C° 0 mm 2 mps 693 mmHg 29%
    17:00 +25°C° 0 mm 2 mps 693 mmHg 32%
    18:00 +24°C° 0 mm 2 mps 692 mmHg 36%
    19:00 +22°C° 0 mm 1 mps 693 mmHg 41%
    20:00 +20°C° 0 mm 1 mps 693 mmHg 46%
    21:00 +18°C° 0 mm 1 mps 693 mmHg 51%
    22:00 +16°C° 0 mm 1 mps 693 mmHg 53%
    23:00 +16°C° 0 mm 1 mps 692 mmHg 56%

    30 April, Tuesday

    Time Temperature Precipitation Wind Pressure Humidity
    00:00 +15°C° 0 mm 1 mps 692 mmHg 58%
    01:00 +15°C° 0 mm 1 mps 692 mmHg 60%
    02:00 +14°C° 0 mm 1 mps 692 mmHg 61%
    03:00 +14°C° 0 mm 1 mps 691 mmHg 63%
    04:00 +14°C° 0 mm 1 mps 691 mmHg 64%
    05:00 +14°C° 0 mm 1 mps 691 mmHg 65%
    06:00 +14°C° 0 mm 1 mps 691 mmHg 66%
    07:00 +16°C° 0 mm 1 mps 692 mmHg 58%
    08:00 +20°C° 0 mm 1 mps 692 mmHg 50%
    09:00 +23°C° 0 mm 1 mps 693 mmHg 41%
    10:00 +24°C° 0 mm 1 mps 693 mmHg 38%
    11:00 +25°C° 0 mm 1 mps 693 mmHg 34%
    12:00 +26°C° 0 mm 1 mps 693 mmHg 31%
    13:00 +26°C° 0 mm 2 mps 692 mmHg 30%
    14:00 +26°C° 0 mm 2 mps 692 mmHg 30%
    15:00 +26°C° 0 mm 2 mps 692 mmHg 29%
    16:00 +25°C° 0 mm 2 mps 691 mmHg 33%
    17:00 +25°C° 0 mm 2 mps 691 mmHg 36%
    18:00 +24°C° 0 mm 1 mps 691 mmHg 40%
    19:00 +22°C° 0 mm 1 mps 691 mmHg 44%
    20:00 +21°C° 0 mm 1 mps 691 mmHg 48%
    21:00 +19°C° 0 mm 1 mps 691 mmHg 52%
    22:00 +18°C° 0 mm 1 mps 691 mmHg 54%
    23:00 +18°C° 0 mm 1 mps 691 mmHg 55%
    Show more